AEHF-1 (USA 214)

Last updated on Nov. 18, 2019, 4:21 a.m. UTC

1 36868U 10039A   19321.35608125  .00000035  00000-0  00000+0 0  9997
2 36868   2.2424 101.7517 0002106 133.7229 312.8461  1.00269731 34332
UTC
Height (km)
Latitude
Longitude
Inclination
Orbital Period
UTC large
Height (km)
Speed (km/s)
/
Latitude / Longitude
Inclination (degrees)
Orbital Period (minutes)
Azimuth
Elevation
Range (km)
Doppler Factor
iOS Compass Heading
iOS Angle

Next 30 passes for location: Hong Kong

Rise time Rise Azimuth (degrees) Set time Set Azimuth (degrees) Duration Max altitude (degrees)

No matching passes for this satellites